sat.trackr.live / text

‹ back to catalog

STARLINK-32184

NORAD 60942 · 2024-155U

PAYLOAD ACTIVE UNKNOWN

§ Identity

Operator
Country
US
Launch date
2024-08-31
Launch site
AFWTR
Launch vehicle
Mass (kg)
RCS (m²)

Purposes: comms

External: N2YO · Heavens-Above · Gunter

§ Orbital elements

Epoch: 2026-05-25T03:18:24.395040Z

Period
94.08 min
Inclination
53.1591°
Eccentricity
0.0002476
Mean motion
15.30666970 rev/d
Perigee alt
472.1 km
Apogee alt
475.5 km
Semi-major
6,852.0 km
B*
2.0699e-3
RAAN
134.7014°
Arg perigee
125.1799°
Mean anomaly
234.9434°
Rev number
9,799

§ Raw data

STARLINK-321841 60942U 24155U   26145.13778235  .00062363  00000+0  20699-2 0  99992 60942  53.1591 134.7014 0002476 125.1799 234.9434 15.30666970 97996

JSON: /api/v1/satellites/60942 · /tle

For live sub-satellite position, see the globe view (requires WebGL).

§ Visibility from observer

Set your observer location to see the next 7 days of passes ≥ 10°. The values pass through the URL so the page stays shareable.

No JS? Fill the form by hand. The geolocation button needs JavaScript.